Groennedal Heliport


Codes: GL-JGR/JGR
Name: Groennedal Heliport
City: Groennedal
Country: Greenland
Elevation: 0 ft.

Photos at Groennedal Heliport


   Photos courtesy of SpottingLog. You can add your own sightings and photos by signing up for a free trial today.



No photos found.

Weather at Groennedal Heliport


Time (UTC)DescriptionTempratureWindCloud coverageVisibilityPressureHumidity
15-Apr-2024 18:00Light Rain4°C13 mph, SE100%10000m1010hPa91%
15-Apr-2024 21:00Snow4°C11 mph, SE100%44m1009hPa94%
16-Apr-2024 00:00Snow3°C25 mph, SE100%49m1009hPa96%
16-Apr-2024 03:00Snow1°C20 mph, SE100%73m1011hPa98%
16-Apr-2024 06:00Snow1°C18 mph, SE100%73m1013hPa98%
16-Apr-2024 09:00Snow1°C11 mph, SE100%72m1016hPa98%
16-Apr-2024 12:00Snow1°C9 mph, SE99%1034m1019hPa97%
16-Apr-2024 15:00Overcast Clouds2°C9 mph, SE94%10000m1021hPa94%
16-Apr-2024 18:00Broken Clouds3°C7 mph, SE81%9477m1019hPa92%
16-Apr-2024 21:00Broken Clouds1°C7 mph, E56%10000m1019hPa88%
17-Apr-2024 00:00Broken Clouds-1°C9 mph, E77%10000m1017hPa72%
17-Apr-2024 03:00Overcast Clouds0°C7 mph, E100%10000m1014hPa74%
17-Apr-2024 06:00Light Snow1°C7 mph, E100%3782m1012hPa90%
17-Apr-2024 09:00Light Snow2°C4 mph, E100%248m1010hPa97%
17-Apr-2024 12:00Light Snow3°C2 mph, E100%37m1010hPa100%
17-Apr-2024 15:00Snow3°C2 mph, S100%25m1011hPa100%
17-Apr-2024 18:00Light Snow3°C2 mph, S100%26m1012hPa100%
17-Apr-2024 21:00Light Snow3°C0 mph, NE100%28m1013hPa100%
18-Apr-2024 00:00Light Snow2°C2 mph, SE100%33m1014hPa99%
18-Apr-2024 03:00Light Snow2°C2 mph, E100%64m1014hPa98%
18-Apr-2024 06:00Light Snow1°C2 mph, SE100%475m1015hPa99%
18-Apr-2024 09:00Light Snow1°C2 mph, SE100%717m1015hPa99%
18-Apr-2024 12:00Light Snow1°C4 mph, S100%1073m1016hPa99%
18-Apr-2024 15:00Light Snow1°C7 mph, S100%3030m1016hPa99%
18-Apr-2024 18:00Light Snow1°C4 mph, S100%2477m1017hPa97%
18-Apr-2024 21:00Light Snow1°C4 mph, SW100%2561m1017hPa94%
19-Apr-2024 00:00Light Snow-1°C0 mph, SW100%2758m1016hPa98%
19-Apr-2024 03:00Light Snow-2°C2 mph, NE100%3090m1016hPa96%
19-Apr-2024 06:00Overcast Clouds-4°C4 mph, NE96%8503m1016hPa92%
19-Apr-2024 09:00Overcast Clouds-3°C4 mph, N96%9082m1015hPa92%
19-Apr-2024 12:00Overcast Clouds-1°C7 mph, NW86%9827m1015hPa90%
19-Apr-2024 15:00Overcast Clouds0°C9 mph, NW95%10000m1014hPa81%
19-Apr-2024 18:00Broken Clouds0°C9 mph, NW75%10000m1014hPa72%
19-Apr-2024 21:00Few Clouds-2°C7 mph, NW14%10000m1016hPa81%
20-Apr-2024 00:00Few Clouds-7°C9 mph, N11%10000m1017hPa80%
20-Apr-2024 03:00Clear Sky-8°C9 mph, N1%10000m1017hPa65%
20-Apr-2024 06:00Clear Sky-7°C11 mph, NE1%10000m1017hPa54%
20-Apr-2024 09:00Scattered Clouds-4°C9 mph, NE35%10000m1015hPa50%
20-Apr-2024 12:00Broken Clouds2°C2 mph, E56%10000m1013hPa65%
20-Apr-2024 15:00Overcast Clouds3°C4 mph, SE100%10000m1014hPa91%